User: anonymous   Login
Location: Unspecified
(0.0000°N, 0.0000°E)
Time: 20:22:26
(UTC+02:00)
Language:

ARIANE 5 R/B - Orbit

View from above orbital plane
View from above orbital plane
View from above satellite
View from above satellite

Ground track
Ground track

The orbit data is extracted from the following two-line orbital elements,

1 28886U 05041C   15147.18450036 -.00000098  00000-0  12329-3 0  9995
2 28886 008.0155 289.1466 7178506 258.0923 008.3325 02.24320032 78848
Epoch (UTC): 27 May 2015 04:25:40
Eccentricity: 0.7178506
inclination: 8.0155°
perigee height: 577 km
apogee height: 35967 km
right ascension of ascending node: 289.1466°
argument of perigee: 258.0923°
revolutions per day: 2.24320032
mean anomaly at epoch: 8.3325°
orbit number at epoch: 7884

The dashed part of the orbit path shows where the satellite is in the earth's shadow,  

DLR